User: anonymous
Location: Caltech
(34.1382°N, 118.1253°W)
Time: 09:30:05
(UTC-07:00)
Language:

Cosmos 2333 Rocket - Orbit

View from above orbital plane
View from above orbital plane
View from above satellite
View from above satellite

Ground track
Ground track

The orbit data is extracted from the following two-line orbital elements,

1 24298U 96051B   14274.66745970 -.00000113  00000-0 -34950-4 0  5671
2 24298 070.8638 347.7231 0017533 220.8735 249.7129 14.12459930932109
Epoch (UTC): 01 October 2014 16:01:08
Eccentricity: 0.0017533
inclination: 70.8638°
perigee height: 838 km
apogee height: 863 km
right ascension of ascending node: 347.7231°
argument of perigee: 220.8735°
revolutions per day: 14.12459930
mean anomaly at epoch: 249.7129°
orbit number at epoch: 93210

The dashed part of the orbit path shows where the satellite is in the earth's shadow,  

DLR